• Em Portugal
  • Lista de países
  • Para 7 dias
  • Temperatura da água
  • Mapas de satélite
  • Mapa do tempo
  • Widgets de tempo
  • user-avatar
    Iniciar Sessão

    Previsão horária em Kahramanmaras

    Hoje, 20 Outubro, Sexta-feira

    Tempo Temperatura Precipitação Vento Pressão Humidade
    00:00 +13°C° 0 mm 1 m/s 662 mmHg 28%
    01:00 +13°C° 0 mm 1 m/s 662 mmHg 29%
    02:00 +12°C° 0 mm 1 m/s 662 mmHg 30%
    03:00 +12°C° 0 mm 1 m/s 662 mmHg 30%
    04:00 +12°C° 0 mm 1 m/s 662 mmHg 31%
    05:00 +10°C° 0 mm 2 m/s 661 mmHg 32%
    06:00 +13°C° 0 mm 1 m/s 662 mmHg 29%
    07:00 +16°C° 0 mm 1 m/s 663 mmHg 25%
    08:00 +19°C° 0 mm 1 m/s 664 mmHg 22%
    09:00 +20°C° 0 mm 1 m/s 664 mmHg 20%
    10:00 +22°C° 0 mm 1 m/s 664 mmHg 17%
    11:00 +23°C° 0 mm 1 m/s 665 mmHg 15%
    12:00 +23°C° 0 mm 1 m/s 664 mmHg 15%
    13:00 +24°C° 0 mm 1 m/s 664 mmHg 14%
    14:00 +24°C° 0 mm 1 m/s 664 mmHg 14%
    15:00 +22°C° 0 mm 1 m/s 663 mmHg 16%
    16:00 +20°C° 0 mm 1 m/s 663 mmHg 18%
    17:00 +16°C° 0 mm 0 m/s 662 mmHg 21%
    18:00 +16°C° 0 mm 1 m/s 662 mmHg 21%
    19:00 +16°C° 0 mm 1 m/s 662 mmHg 22%
    20:00 +15°C° 0 mm 1 m/s 662 mmHg 23%
    21:00 +14°C° 0 mm 1 m/s 662 mmHg 23%
    22:00 +14°C° 0 mm 1 m/s 662 mmHg 24%
    23:00 +14°C° 0 mm 1 m/s 662 mmHg 24%

    Amanhã, 21 Outubro, Sábado

    Tempo Temperatura Precipitação Vento Pressão Humidade
    00:00 +13°C° 0 mm 1 m/s 661 mmHg 24%
    01:00 +13°C° 0 mm 1 m/s 661 mmHg 25%
    02:00 +13°C° 0 mm 1 m/s 661 mmHg 25%
    03:00 +12°C° 0 mm 1 m/s 661 mmHg 25%
    04:00 +12°C° 0 mm 1 m/s 661 mmHg 25%
    05:00 +12°C° 0 mm 1 m/s 661 mmHg 26%
    06:00 +14°C° 0 mm 1 m/s 661 mmHg 23%
    07:00 +16°C° 0 mm 1 m/s 662 mmHg 21%
    08:00 +19°C° 0 mm 1 m/s 663 mmHg 18%
    09:00 +20°C° 0 mm 1 m/s 663 mmHg 17%
    10:00 +21°C° 0 mm 1 m/s 663 mmHg 15%
    11:00 +23°C° 0 mm 1 m/s 663 mmHg 14%
    12:00 +23°C° 0 mm 1 m/s 663 mmHg 14%
    13:00 +23°C° 0 mm 2 m/s 662 mmHg 13%
    14:00 +23°C° 0 mm 2 m/s 662 mmHg 13%
    15:00 +20°C° 0 mm 2 m/s 661 mmHg 15%
    16:00 +18°C° 0 mm 2 m/s 661 mmHg 18%
    17:00 +18°C° 0 mm 1 m/s 660 mmHg 20%
    18:00 +16°C° 0 mm 1 m/s 660 mmHg 22%
    19:00 +15°C° 0 mm 1 m/s 660 mmHg 24%
    20:00 +14°C° 0 mm 1 m/s 660 mmHg 25%
    21:00 +13°C° 0 mm 1 m/s 660 mmHg 26%
    22:00 +13°C° 0 mm 1 m/s 660 mmHg 27%
    23:00 +12°C° 0 mm 1 m/s 660 mmHg 28%

    Depois de amanhã, 22 Outubro, Domingo

    Tempo Temperatura Precipitação Vento Pressão Humidade
    00:00 +12°C° 0 mm 1 m/s 659 mmHg 28%
    01:00 +12°C° 0 mm 1 m/s 659 mmHg 28%
    02:00 +12°C° 0 mm 1 m/s 659 mmHg 29%
    03:00 +11°C° 0 mm 1 m/s 659 mmHg 29%
    04:00 +11°C° 0 mm 1 m/s 659 mmHg 30%
    05:00 +11°C° 0 mm 1 m/s 659 mmHg 30%
    06:00 +13°C° 0 mm 1 m/s 659 mmHg 27%
    07:00 +15°C° 0 mm 1 m/s 660 mmHg 24%
    08:00 +16°C° 0 mm 1 m/s 661 mmHg 21%
    09:00 +19°C° 0 mm 1 m/s 661 mmHg 19%
    10:00 +20°C° 0 mm 1 m/s 661 mmHg 17%
    11:00 +22°C° 0 mm 1 m/s 662 mmHg 14%
    12:00 +22°C° 0 mm 1 m/s 661 mmHg 15%
    13:00 +21°C° 0 mm 2 m/s 661 mmHg 15%
    14:00 +23°C° 0 mm 2 m/s 660 mmHg 15%
    15:00 +20°C° 0 mm 2 m/s 660 mmHg 20%
    16:00 +18°C° 0 mm 2 m/s 659 mmHg 25%
    17:00 +16°C° 0 mm 2 m/s 659 mmHg 30%
    18:00 +15°C° 0 mm 1 m/s 659 mmHg 34%
    19:00 +14°C° 0 mm 1 m/s 659 mmHg 39%
    20:00 +13°C° 0 mm 1 m/s 659 mmHg 43%
    21:00 +13°C° 0 mm 1 m/s 659 mmHg 44%
    22:00 +12°C° 0 mm 1 m/s 659 mmHg 45%
    23:00 +12°C° 0 mm 1 m/s 659 mmHg 47%

    23 Outubro, Segunda-feira

    Tempo Temperatura Precipitação Vento Pressão Humidade
    00:00 +12°C° 0 mm 1 m/s 658 mmHg 46%
    01:00 +11°C° 0 mm 1 m/s 658 mmHg 45%
    02:00 +11°C° 0 mm 1 m/s 658 mmHg 44%
    03:00 +11°C° 0 mm 1 m/s 658 mmHg 42%
    04:00 +10°C° 0 mm 2 m/s 658 mmHg 41%
    05:00 +9°C° 0 mm 2 m/s 658 mmHg 39%
    06:00 +12°C° 0 mm 1 m/s 659 mmHg 34%
    07:00 +14°C° 0 mm 1 m/s 660 mmHg 29%
    08:00 +16°C° 0 mm 1 m/s 660 mmHg 24%
    09:00 +19°C° 0 mm 1 m/s 661 mmHg 21%
    10:00 +19°C° 0 mm 2 m/s 661 mmHg 19%
    11:00 +21°C° 0 mm 2 m/s 661 mmHg 16%
    12:00 +21°C° 0 mm 2 m/s 661 mmHg 16%
    13:00 +21°C° 0 mm 2 m/s 660 mmHg 16%
    14:00 +21°C° 0 mm 2 m/s 660 mmHg 16%
    15:00 +19°C° 0 mm 2 m/s 659 mmHg 21%
    16:00 +18°C° 0 mm 2 m/s 659 mmHg 25%
    17:00 +16°C° 0 mm 1 m/s 658 mmHg 29%
    18:00 +15°C° 0 mm 1 m/s 658 mmHg 32%
    19:00 +14°C° 0 mm 1 m/s 658 mmHg 36%
    20:00 +13°C° 0 mm 1 m/s 658 mmHg 39%
    21:00 +13°C° 0 mm 1 m/s 658 mmHg 41%
    22:00 +12°C° 0 mm 1 m/s 658 mmHg 43%
    23:00 +12°C° 0 mm 1 m/s 658 mmHg 45%

    24 Outubro, Terça-feira

    Tempo Temperatura Precipitação Vento Pressão Humidade
    00:00 +11°C° 0 mm 1 m/s 658 mmHg 46%
    01:00 +11°C° 0 mm 1 m/s 658 mmHg 46%
    02:00 +11°C° 0 mm 1 m/s 658 mmHg 46%
    03:00 +11°C° 0 mm 1 m/s 658 mmHg 45%
    04:00 +10°C° 0 mm 1 m/s 658 mmHg 43%
    05:00 +10°C° 0 mm 1 m/s 658 mmHg 42%
    06:00 +12°C° 0 mm 1 m/s 659 mmHg 36%
    07:00 +14°C° 0 mm 1 m/s 660 mmHg 31%
    08:00 +16°C° 0 mm 1 m/s 661 mmHg 26%
    09:00 +18°C° 0 mm 2 m/s 661 mmHg 26%
    10:00 +19°C° 0 mm 2 m/s 661 mmHg 25%
    11:00 +20°C° 0 mm 2 m/s 662 mmHg 25%
    12:00 +21°C° 0 mm 2 m/s 661 mmHg 24%
    13:00 +21°C° 0 mm 3 m/s 661 mmHg 24%
    14:00 +22°C° 0 mm 3 m/s 661 mmHg 23%
    15:00 +20°C° 0 mm 2 m/s 661 mmHg 27%
    16:00 +18°C° 0 mm 2 m/s 660 mmHg 30%
    17:00 +16°C° 0 mm 1 m/s 660 mmHg 34%
    18:00 +16°C° 0 mm 1 m/s 660 mmHg 35%
    19:00 +15°C° 0 mm 1 m/s 660 mmHg 37%
    20:00 +14°C° 0 mm 1 m/s 660 mmHg 39%
    21:00 +14°C° 0 mm 1 m/s 660 mmHg 39%
    22:00 +14°C° 0 mm 1 m/s 660 mmHg 40%
    23:00 +13°C° 0 mm 2 m/s 660 mmHg 41%

    25 Outubro, Quarta-feira

    Tempo Temperatura Precipitação Vento Pressão Humidade
    00:00 +13°C° 0 mm 2 m/s 660 mmHg 41%
    01:00 +13°C° 0 mm 2 m/s 660 mmHg 41%
    02:00 +13°C° 0 mm 2 m/s 660 mmHg 41%
    03:00 +12°C° 0 mm 2 m/s 660 mmHg 41%
    04:00 +12°C° 0 mm 2 m/s 659 mmHg 41%
    05:00 +12°C° 0 mm 2 m/s 659 mmHg 41%
    06:00 +14°C° 0 mm 2 m/s 660 mmHg 36%
    07:00 +16°C° 0 mm 2 m/s 661 mmHg 32%
    08:00 +17°C° 0 mm 2 m/s 662 mmHg 27%
    09:00 +19°C° 0 mm 2 m/s 662 mmHg 24%
    10:00 +20°C° 0 mm 2 m/s 662 mmHg 22%
    11:00 +22°C° 0 mm 3 m/s 662 mmHg 19%
    12:00 +22°C° 0 mm 3 m/s 662 mmHg 19%
    13:00 +22°C° 0 mm 3 m/s 662 mmHg 19%
    14:00 +22°C° 0 mm 3 m/s 662 mmHg 18%
    15:00 +20°C° 0 mm 3 m/s 661 mmHg 22%
    16:00 +18°C° 0 mm 2 m/s 661 mmHg 26%
    17:00 +16°C° 0 mm 1 m/s 660 mmHg 30%
    18:00 +16°C° 0 mm 1 m/s 660 mmHg 33%
    19:00 +15°C° 0 mm 1 m/s 660 mmHg 35%
    20:00 +14°C° 0 mm 1 m/s 660 mmHg 38%
    21:00 +13°C° 0 mm 1 m/s 660 mmHg 41%
    22:00 +13°C° 0 mm 1 m/s 660 mmHg 43%
    23:00 +13°C° 0 mm 1 m/s 660 mmHg 45%
    Mostrar mais